星链-31332 (STARLINK-31332 )

导读

STARLINK-31332是美国SpaceX公司星链(Starlink)星座的一颗第二代卫星,于北京时间2024年4月23日发射入轨。作为星链第二代(Gen2)主力卫星,它运行于近地轨道,配备增强型相控阵天线与激光星间链路,可提供高速低延迟宽带通信,助力实现全球网络覆盖,支持偏远地区接入、移动互联、应急通信等多种场景。

Basic Information
目录编号:
59566
目录名称:
STARLINK-31332
国际标识:
2024-076C
轨道中心:
EARTH
卫星名称:
星链-31332
卫星全名:
星链-31332 (STARLINK-31332 )
卫星状态:
在轨 (已飞行786 天)
发射日期:
2024-04-23 UTC
国别 :
美国 (US)
星等 :
--
Orbit Information
数据来源 国际轨道数据 AOE轨道数据
星历时间 2026-06-17T14:18:02+0800
1天前
查看轨道信息
2026-06-15T06:00:00+0800
3天前
查看轨道信息
半长轴 6861.197km 6861.178km
偏心率 0.0001609 0.0001514
轨道倾角 43.002° 43.014°
近地点辐角 281.228° 199.102°
升交点赤经 166.441° 179.669°
平近点角 78.839° 205.342°
近地点 481.956km 482.002km
远地点 484.164km 484.08km
周期 94.267分钟 94.267分钟
每日圈数 15.275764 15.275829
Detailed Information
固有亮度:
5
最大亮度:
1.5
卫星平台:
Starlink v2.0 mini
覆盖范围:
全球
运营商:
太空探索技术公司
运营商所在国:
美国
制造商(研发单位):
太空探索技术公司
制造商所在国:
美国
使用方式:
暂无
Satellite Introduction
星链(Starlink)计划是由太空探索技术公司(SpaceX)提出的一个巨型低轨卫星互联网星座项目,计划在2019年至2024年间在太空搭建由约1.2万颗卫星组成的“星链”网络,其中1584颗将部署在地球上空550千米处的近地轨道,并从2020年开始工作。该卫星仍在工作。
2D Orbit Map
3D Orbit Map
Orbit Altitude Analysis Chart
Orbit Inclination Analysis Chart
Orbit Comprehensive Analysis Chart
View Comprehensive Chart